Location: Ellingshausen
(50.5460°N, 10.4723°E)
Time: 23:48:57
(UTC+00:00)

BREEZE-M DEB (TANK) - Visible Passes

Search period start: 18 April 2026 00:00
Search period end: 28 April 2026 00:00
Orbit: 350 x 16119 km, 49.4° (Epoch: 18 April)

Date Brightness Start Highest point End Pass type
(mag) Time Alt. Az. Time Alt. Az. Time Alt. Az.
18 Apr 5.5 22:55:42 10° W 22:56:14 13° WSW 22:56:14 13° WSW visible
21 Apr 2.1 19:10:53 10° W 19:13:22 68° S 19:18:31 10° ESE visible
22 Apr 2.5 19:36:38 10° W 19:39:17 58° SSW 19:43:54 15° ESE visible
23 Apr 3.0 20:02:22 10° W 20:05:14 49° SSW 20:09:03 20° SE visible
24 Apr 3.6 20:28:06 10° W 20:31:13 40° SSW 20:34:12 25° SE visible
25 Apr 4.1 20:53:53 10° W 20:57:17 33° SSW 20:59:19 28° SSE visible
26 Apr 4.7 21:19:43 10° W 21:23:27 28° SSW 21:24:27 27° S visible
27 Apr 5.2 21:45:43 10° WSW 21:49:34 23° SSW 21:49:34 23° SSW visible
